Regional Weather Roundup
Issued by NWS Burlington, VT

Current Version | Previous Version | Text Only | Print | Product List | Glossary On
Versions: 1 2 3 4 5 6 7 8 9 10 11 12 13 14 15 16 17 18 19 20 21 22 23 24 25 26 27 28 29 30 31 32 33 34 35 36 37 38 39 40 41 42 43 44 45 46 47 48 49 50
000
ASUS41 KBTV 211430
RWRBTV
VERMONT REGIONAL WEATHER ROUNDUP
NATIONAL WEATHER SERVICE BURLINGTON VT
900 AM EST SUN JAN 21 2018

NOTE: "FAIR" INDICATES FEW OR NO CLOUDS BELOW 12,000 FEET WITH NO
SIGNIFICANT WEATHER AND/OR OBSTRUCTIONS TO VISIBILITY.

* THESE REPORTS ARE NOT UNDER NWS QUALITY CONTROL AND/OR DO NOT
  REPORT WEATHER SUCH AS PRECIPITATION AND FOG.

VTZ001>019-211500-
_____VERMONT_____


CITY           SKY/WX    TMP DP  RH WIND       PRES   REMARKS
BURLINGTON     CLOUDY    37  26  64 NE3       30.13R
MONTPELIER     CLOUDY    33  28  81 NW3       30.11R
MORRISVILLE    CLOUDY    33  25  72 N6        30.10R WCI  28
ST. JOHNSBURY*   N/A     35  26  69 MISG      30.07R
LYNDONVILLE*   CLOUDY    32  24  71 CALM      30.08S
MIDDLEBURY*    CLOUDY    35  29  79 CALM      30.12R
RUTLAND*       PTSUNNY   36  28  75 CALM      30.12R
SPRINGFIELD    CLOUDY    31  29  92 VRB3      30.10R
HIGHGATE*      CLOUDY    32  24  73 CALM      30.13R
NEWPORT*       CLOUDY    31  24  78 CALM      30.09R
BENNINGTON     CLOUDY    34  28  79 S5        30.12R WCI  30
ISLAND POND*     N/A     30 N/A N/A W5          N/A  WCI  25
GALLUP MILLS*    N/A     32 N/A N/A MISG        N/A
UNION VILLAGE*   N/A     32 N/A N/A MISG        N/A
MT. MANSFIELD*   N/A     25 N/A N/A W51         N/A  WCI   4

_____LAKE CHAMPLAIN_____


CITY           SKY/WX    TMP DP  RH WIND       PRES   REMARKS
BURTON ISLAND*   N/A     34  27  75 MISG        N/A
COLCHESTER RF*   N/A     34  28  80 NE1         N/A
DIAMOND ISL*     N/A     37  32  81 S1          N/A

$$

NYZ007-026>031-035-052-083-087-211500-
_____NORTHERN NEW YORK_____


CITY           SKY/WX    TMP DP  RH WIND       PRES   REMARKS
PLATTSBURGH    CLOUDY    35  26  69 CALM      30.13R
SARANAC LAKE   CLOUDY    32  30  92 SW6       30.05R WCI  26
MASSENA        CLOUDY    33  30  88 CALM      30.15R
OGDENSBURG*      N/A     33  33  97 SW3       30.13R FOG
POTSDAM*       CLOUDY    32  30  93 SW6       30.11R WCI  26
STARK FALLS*     N/A     34 N/A N/A SW5         N/A  WCI  30
WATERTOWN      FAIR      35  34  96 SW5       30.14R FOG     WCI  31
FT DRUM        MOSUNNY   34  31  89 SW7       30.12R WCI  28
ALBANY         CLOUDY    38  28  67 W6        30.16R
GLENS FALLS    CLOUDY    30  28  92 CALM      30.13R FOG

$$
NHZ002-005-011-211500-
_____NEW HAMPSHIRE_____


CITY           SKY/WX    TMP DP  RH WIND       PRES   REMARKS
LEBANON        CLOUDY    32  29  88 CALM      30.09R
KEENE          CLOUDY    25  24  96 CALM      30.13
MT WASHINGTON  FOG       14  14 100 NW56G68     N/A  VSB 0   WCI -12
PLYMOUTH       CLOUDY    39  28  64 W5        30.09R
WHITEFIELD     CLOUDY    35  25  66 W3        30.07R

$$

_____REGIONAL QUEBEC LOCATIONS_____


CITY           SKY/WX    TMP DP  RH WIND       PRES   REMARKS
MONTREAL       CLOUDY    28  16  59 NE3       30.13R
QUEBEC CITY    PTSUNNY   10   1  67 W3        30.12R
SHERBROOKE     CLOUDY    25  16  68 W8        30.08R WCI  16

_____REGIONAL ONTARIO LOCATIONS_____


CITY           SKY/WX    TMP DP  RH WIND       PRES   REMARKS
OTTAWA         CLOUDY    30  21  69 E3        30.12R

______KEY______
VSB  - VISIBILITY IN MILES
WCI  - WIND CHILL INDEX
HX   - HEAT INDEX
$$
NNNN




USA.gov is the U.S. government's official web portal to all federal, state and local government web resources and services.